Time,TemperatureF,DewpointF,PressureIn,WindDirection,WindDirectionDegrees,WindSpeedMPH,WindSpeedGustMPH,Humidity,HourlyPrecipIn,Conditions,Clouds,dailyrainin,SoftwareType,DateUTC
2013-12-09 00:22:00,44.0,37.0,30.07,WSW,251,0.0,0.0,75,0.00,,,0.00,,2013-12-09 07:22:00,
2013-12-09 00:42:00,43.0,37.0,30.07,WSW,251,0.0,0.0,78,0.00,,,0.00,,2013-12-09 07:42:00,
2013-12-09 00:52:00,43.0,37.0,30.06,WSW,251,0.0,0.0,78,0.00,,,0.00,,2013-12-09 07:52:00,
2013-12-09 01:21:00,43.0,37.0,30.07,WSW,251,0.0,0.0,79,0.00,,,0.00,,2013-12-09 08:21:00,
2013-12-09 01:52:00,42.0,37.0,30.07,WSW,251,0.0,0.0,81,0.00,,,0.00,,2013-12-09 08:52:00,
2013-12-09 02:22:00,41.0,36.0,30.07,WSW,251,0.0,0.0,81,0.00,,,0.00,,2013-12-09 09:22:00,
2013-12-09 02:54:00,41.0,34.0,30.07,WSW,251,0.0,0.0,77,0.00,,,0.00,,2013-12-09 09:54:00,
2013-12-09 03:23:00,41.0,34.0,30.08,WSW,249,0.0,0.0,76,0.00,,,0.00,,2013-12-09 10:23:00,
2013-12-09 03:52:00,41.0,33.0,30.09,WSW,249,0.0,1.0,72,0.00,,,0.00,,2013-12-09 10:52:00,
2013-12-09 04:22:00,41.0,31.0,30.09,WSW,249,0.0,1.0,66,0.00,,,0.00,,2013-12-09 11:22:00,
2013-12-09 04:53:00,40.0,30.0,30.09,WSW,249,0.0,0.0,68,0.00,,,0.00,,2013-12-09 11:53:00,
2013-12-09 05:22:00,40.0,31.0,30.09,WSW,249,0.0,0.0,70,0.00,,,0.00,,2013-12-09 12:22:00,
2013-12-09 05:52:00,38.0,29.0,30.11,WSW,245,0.0,1.0,71,0.00,,,0.00,,2013-12-09 12:52:00,
2013-12-09 06:12:00,38.0,28.0,30.12,WSW,245,0.0,0.0,66,0.00,,,0.00,,2013-12-09 13:12:00,
2013-12-09 06:22:00,38.0,28.0,30.14,WSW,245,0.0,0.0,66,0.00,,,0.00,,2013-12-09 13:22:00,
2013-12-09 06:52:00,37.0,26.0,30.13,WSW,245,0.0,0.0,65,0.00,,,0.00,,2013-12-09 13:52:00,
2013-12-09 07:21:00,36.0,27.0,30.15,WSW,245,0.0,0.0,70,0.00,,,0.00,,2013-12-09 14:21:00,
2013-12-09 07:42:00,35.0,27.0,30.16,WSW,244,0.0,1.0,72,0.00,,,0.00,,2013-12-09 14:42:00,
2013-12-09 07:52:00,34.0,26.0,30.17,WSW,244,0.0,0.0,73,0.00,,,0.00,,2013-12-09 14:52:00,
2013-12-09 08:21:00,34.0,27.0,30.19,WSW,238,0.0,1.0,74,0.00,,,0.00,,2013-12-09 15:21:00,
2013-12-09 08:53:00,35.0,27.0,30.21,South,174,0.0,0.0,73,0.00,,,0.00,,2013-12-09 15:53:00,
2013-12-09 09:23:00,41.0,24.0,30.22,SSE,163,2.0,5.0,50,0.00,,,0.00,,2013-12-09 16:23:00,
2013-12-09 09:53:00,44.0,25.0,30.23,South,182,1.0,5.0,46,0.00,,,0.00,,2013-12-09 16:53:00,
2013-12-09 10:22:00,45.0,25.0,30.24,SSW,199,1.0,6.0,45,0.00,,,0.00,,2013-12-09 17:22:00,
2013-12-09 10:53:00,46.0,26.0,30.25,SSW,205,1.0,5.0,46,0.00,,,0.00,,2013-12-09 17:53:00,
2013-12-09 11:21:00,47.0,26.0,30.25,SSW,201,1.0,5.0,44,0.00,,,0.00,,2013-12-09 18:21:00,
2013-12-09 11:52:00,48.0,26.0,30.24,SSW,198,1.0,5.0,42,0.00,,,0.00,,2013-12-09 18:52:00,
2013-12-09 12:22:00,49.0,26.0,30.23,West,272,2.0,6.0,41,0.00,,,0.00,,2013-12-09 19:22:00,
2013-12-09 12:52:00,50.0,28.0,30.22,West,269,1.0,5.0,43,0.00,,,0.00,,2013-12-09 19:52:00,
2013-12-09 13:21:00,51.0,28.0,30.22,SW,227,3.0,10.0,41,0.00,,,0.00,,2013-12-09 20:21:00,
2013-12-09 13:53:00,51.0,24.0,30.21,WNW,284,3.0,10.0,35,0.00,,,0.00,,2013-12-09 20:53:00,
2013-12-09 14:22:00,51.0,25.0,30.21,WNW,298,3.0,9.0,36,0.00,,,0.00,,2013-12-09 21:22:00,
2013-12-09 14:43:00,51.0,23.0,30.22,West,263,5.0,9.0,33,0.00,,,0.00,,2013-12-09 21:43:00,
2013-12-09 14:53:00,51.0,23.0,30.22,WSW,238,5.0,10.0,33,0.00,,,0.00,,2013-12-09 21:53:00,
2013-12-09 15:22:00,51.0,23.0,30.22,WSW,253,3.0,9.0,33,0.00,,,0.00,,2013-12-09 22:22:00,
2013-12-09 15:42:00,51.0,22.0,30.22,WSW,256,2.0,7.0,32,0.00,,,0.00,,2013-12-09 22:42:00,
2013-12-09 15:53:00,51.0,23.0,30.23,West,262,3.0,8.0,33,0.00,,,0.00,,2013-12-09 22:53:00,
2013-12-09 16:21:00,50.0,22.0,30.22,WNW,291,2.0,6.0,33,0.00,,,0.00,,2013-12-09 23:21:00,
2013-12-09 16:53:00,50.0,23.0,30.24,West,263,3.0,7.0,34,0.00,,,0.00,,2013-12-09 23:53:00,
2013-12-09 17:21:00,48.0,22.0,30.25,West,280,1.0,3.0,35,0.00,,,0.00,,2013-12-10 00:21:00,
2013-12-09 17:42:00,48.0,22.0,30.25,WNW,297,0.0,4.0,36,0.00,,,0.00,,2013-12-10 00:42:00,
2013-12-09 17:52:00,47.0,23.0,30.26,WNW,297,0.0,2.0,38,0.00,,,0.00,,2013-12-10 00:52:00,
2013-12-09 18:22:00,44.0,23.0,30.24,WNW,297,0.0,0.0,44,0.00,,,0.00,,2013-12-10 01:22:00,
2013-12-09 18:52:00,41.0,27.0,30.25,WNW,297,0.0,0.0,57,0.00,,,0.00,,2013-12-10 01:52:00,
2013-12-09 19:21:00,39.0,27.0,30.26,WNW,298,0.0,0.0,62,0.00,,,0.00,,2013-12-10 02:21:00,
2013-12-09 19:52:00,37.0,26.0,30.27,WNW,298,0.0,0.0,65,0.00,,,0.00,,2013-12-10 02:52:00,
2013-12-09 20:21:00,36.0,26.0,30.28,WNW,298,0.0,1.0,67,0.00,,,0.00,,2013-12-10 03:21:00,
2013-12-09 20:53:00,35.0,26.0,30.29,WNW,298,0.0,0.0,68,0.00,,,0.00,,2013-12-10 03:53:00,
2013-12-09 21:13:00,35.0,26.0,30.29,WNW,299,0.0,0.0,69,0.00,,,0.00,,2013-12-10 04:13:00,
2013-12-09 21:23:00,35.0,26.0,30.30,WNW,299,0.0,0.0,70,0.00,,,0.00,,2013-12-10 04:23:00,
2013-12-09 21:52:00,34.0,26.0,30.30,WNW,299,0.0,0.0,71,0.00,,,0.00,,2013-12-10 04:52:00,
2013-12-09 22:22:00,34.0,26.0,30.31,WNW,299,0.0,0.0,73,0.00,,,0.00,,2013-12-10 05:22:00,
2013-12-09 22:52:00,33.0,26.0,30.30,WNW,299,0.0,0.0,75,0.00,,,0.00,,2013-12-10 05:52:00,
2013-12-09 23:22:00,32.0,26.0,30.31,WNW,299,0.0,1.0,78,0.00,,,0.00,,2013-12-10 06:22:00,
2013-12-09 23:42:00,32.0,26.0,30.30,WNW,301,0.0,0.0,77,0.00,,,0.00,,2013-12-10 06:42:00,
2013-12-09 23:52:00,32.0,26.0,30.30,WNW,301,0.0,1.0,78,0.00,,,0.00,,2013-12-10 06:52:00,